STARLINK-4706 (53779 NORAD) Tracking and Keplerian Element Data

This shows tracking and keplerian element data for the satellite.

Feedback or suggestion? Click here.




ElementValue
Catalog53779
NameSTARLINK-4706
Epoch Orbit1106
Epoch Day325.33334491
Epoch Year2022
RAAN280.7971
Inclination53.2174
Eccentricity0.0001807
Argument of Perigee47.1851
Mean Anonmoly96.6415
Mean Motion15.0896678
Decay Rate-0.00198996
L11 53779U 22111G 22325.33334491 -.00198996 00000+0 -12792-1 0 9997
L22 53779 53.2174 280.7971 0001807 47.1851 96.6415 15.08966780 11060



Live tracking and technical data element details for STARLINK-4706 (NORAD 53779). STARLINK-4706 can be tracked NOW for your location showing map with azimuth and elevation plus other details from your city location.







IsCatalogInMostPopularTable: catalog: 53779, numindb: -1

Insert: records affected: 1


GetName: 53779 STARLINK-4706

Hit Count: inserted at: Mon, 28 Nov 2022 04:37:27 GMT